Погода в Ерейментау

Казахстан     51°37′10″N   73°06′09″E
темп.,
°C
ветер,
м/с
пор.,
м/с
влажн.,
%
обл.,
%
осадки,
мм/ч
давл.,
гПа
погр.,
м
7 марта, вс
вс700:00−4юз8149497 0.2 1016518
03:00−4юз61096100 0.3 1016355
06:00−4юз61095100 0.6 1018354
09:00−5ююз5994100 0.1 1019265
12:00−3юз5994100 0.2 1019315
15:00−2ююз71191100 0.0 1017478
18:00−2юз81392100 0.0 1016581
21:00−1юз81391100 0.0 1016695
8 марта, пн
пн800:00−4ююз91788100 0.0 1014409
03:00−4ююз91880100 0.0 1012411
06:00−5ююз102076100 0.0 1009464
09:00−4юз111982100 0.0 1008542
12:00−2зюз101695100 0.5 1011984
15:00−6зсз7990100 0.8 1016655
18:00−9з599294 0.8 1020264
21:00−15юз58963 0.0 1024118
9 марта, вт
вт900:00−15юз510912 0.0 1026166
03:00−15юз611830 0.0 1026167
06:00−16ююз611806 0.0 1026152
09:00−15ююз497738 0.0 1025144
12:00−9ююз587331 0.0 1023255
15:00−7ююз47770 0.0 1021296
18:00−9юз34910 0.0 101950
21:00−12ююз44951 0.0 101845
10 марта, ср
ср1000:00−10ююз349347 0.0 101782
03:00−8ююз3599100 0.0 1014122
06:00−3ю1297100 0.1 101185
09:00−9в1167100 0.0 101421
12:00−6всв3595100 0.5 1010180
15:00−6всв6895100 3.6 1006289
18:00−8ссв6995100 8.6 1003323
21:00−9ссз5895100 2.3 1005385
11 марта, чт
чт1100:00−10зсз4896100 2.9 1009234
03:00−10зюз479799 0.2 1013179
06:00−12юз61196100 0.3 1015236
09:00−11ююз71491100 0.0 1015312
12:00−5ююз11198384 0.0 1013902
15:00−3юз121991100 0.4 10121529
18:00−8юз91677100 0.9 1013834
21:00−12юз918845 0.0 1015783